QPF
0.00 0.00 0.00 0.00 0.00 0.01 0.01 0.01 0.01 0.01 0.01 0.00 0.00 0.00 0.00 0.00 0.00 0.00 0.00 0.00 0.00 0.01 0.01 0.01 0.01 0.01 0.01 0.01 0.01 0.01 0.01 0.01 0.01 0.01 0.01 0.01 0.01 0.01
0.01 0.01 0.00 0.00 0.00 0.00 0.01 0.01 0.01 0.01 0.01 0.00 0.00 0.00 0.00 0.00 0.00 0.00 0.00 0.00 0.00 0.01 0.01 0.00 0.01 0.01 0.01 0.01 0.01 0.01 0.01 0.01 0.01 0.01 0.01 0.01 0.01 0.01
0.01 0.01 0.01 0.01 0.01 0.01 0.01 0.01 0.01 0.01 0.01 0.01 0.00 0.00 0.00 0.00 0.00 0.00 0.00 0.00 0.00 0.00 0.00 0.00 0.00 0.00 0.01 0.01 0.01 0.01 0.01 0.01 0.01 0.01 0.01 0.01 0.01 0.01
0.01 0.01 0.01 0.02 0.02 0.01 0.01 0.01 0.01 0.01 0.00 0.00 0.00 0.00 0.00 0.00 0.00 0.00 0.00 0.00 0.00 0.00 0.00 0.00 0.00 0.00 0.00 0.01 0.00 0.00 0.00 0.00 0.00 0.01 0.01 0.01 0.01 0.01
0.01 0.01 0.01 0.01 0.01 0.01 0.01 0.01 0.01 0.01 0.00 0.00 0.01 0.00 0.00 0.00 0.00 0.00 0.00 0.00 0.00 0.00 0.00 0.00 0.01 0.01 0.01 0.00 0.00 0.00 0.00 0.00 0.00 0.00 0.00 0.00 0.00 0.00
0.01 0.01 0.01 0.01 0.01 0.02 0.02 0.02 0.02 0.01 0.01 0.00 0.01 0.01 0.00 0.00 0.00 0.00 0.00 0.00 0.00 0.00 0.00 0.00 0.00 0.01 0.01 0.01 0.00 0.00 0.01 0.01 0.01 0.01 0.01 0.01 0.01 0.01
0.01 0.01 0.01 0.01 0.01 0.01 0.01 0.01 0.02 0.01 0.01 0.01 0.01 0.00 0.01 0.01 0.00 0.00 0.00 0.00 0.00 0.00 0.00 0.00 0.00 0.00 0.01 0.01 0.01 0.01 0.01 0.01 0.01 0.01 0.01 0.01 0.01 0.01
0.01 0.01 0.01 0.01 0.00 0.00 0.00 0.01 0.01 0.01 0.01 0.01 0.01 0.01 0.01 0.00 0.00 0.00 0.01 0.01 0.00 0.00 0.00 0.00 0.00 0.00 0.00 0.00 0.01 0.01 0.01 0.02 0.02 0.02 0.02 0.02 0.01 0.01
0.01 0.01 0.01 0.00 0.01 0.00 0.00 0.01 0.01 0.01 0.02 0.02 0.01 0.01 0.01 0.01 0.01 0.01 0.01 0.01 0.01 0.01 0.01 0.00 0.00 0.00 0.01 0.01 0.01 0.00 0.00 0.00 0.01 0.01 0.01 0.01 0.01 0.01
0.01 0.01 0.01 0.01 0.01 0.01 0.01 0.00 0.01 0.01 0.02 0.02 0.01 0.01 0.01 0.02 0.01 0.01 0.01 0.02 0.02 0.01 0.02 0.01 0.01 0.01 0.01 0.01 0.01 0.01 0.00 0.00 0.00 0.00 0.00 0.00 0.00 0.00
0.01 0.00 0.00 0.00 0.01 0.01 0.00 0.00 0.00 0.00 0.01 0.01 0.01 0.01 0.01 0.01 0.01 0.01 0.01 0.02 0.01 0.01 0.01 0.01 0.01 0.01 0.01 0.01 0.01 0.01 0.01 0.00 0.00 0.00 0.00 0.00 0.00 0.00
0.01 0.00 0.00 0.00 0.00 0.00 0.00 0.00 0.00 0.00 0.01 0.01 0.01 0.01 0.01 0.01 0.01 0.01 0.01 0.01 0.01 0.01 0.01 0.00 0.00 0.00 0.01 0.01 0.01 0.02 0.01 0.01 0.01 0.00 0.00 0.00 0.00 0.00
0.01 0.00 0.00 0.01 0.01 0.00 0.01 0.00 0.01 0.00 0.00 0.00 0.00 0.01 0.01 0.01 0.01 0.01 0.01 0.01 0.01 0.01 0.00 0.00 0.00 0.00 0.00 0.01 0.01 0.01 0.02 0.01 0.01 0.00 0.00 0.00 0.00 0.00
0.01 0.01 0.00 0.01 0.01 0.01 0.01 0.01 0.01 0.01 0.00 0.00 0.01 0.01 0.01 0.01 0.01 0.01 0.01 0.01 0.01 0.01 0.01 0.01 0.01 0.01 0.01 0.01 0.01 0.01 0.01 0.01 0.01 0.00 0.00 0.00 0.00 0.00
0.01 0.01 0.01 0.01 0.01 0.01 0.01 0.02 0.01 0.01 0.01 0.01 0.01 0.01 0.01 0.01 0.01 0.01 0.01 0.01 0.01 0.01 0.01 0.01 0.01 0.01 0.01 0.01 0.01 0.01 0.00 0.00 0.00 0.00 0.00 0.00 0.00 0.00
0.01 0.01 0.01 0.01 0.01 0.01 0.01 0.01 0.01 0.01 0.01 0.01 0.01 0.01 0.02 0.02 0.02 0.02 0.02 0.02 0.01 0.01 0.01 0.01 0.01 0.01 0.01 0.01 0.01 0.00 0.00 0.00 0.00 0.00 0.00 0.00 0.00 0.00
0.03 0.02 0.01 0.01 0.02 0.02 0.01 0.01 0.01 0.02 0.02 0.02 0.02 0.02 0.02 0.02 0.02 0.02 0.02 0.02 0.02 0.01 0.01 0.01 0.02 0.02 0.02 0.02 0.02 0.01 0.01 0.01 0.01 0.01 0.01 0.01 0.01 0.01
0.03 0.03 0.02 0.01 0.01 0.01 0.01 0.02 0.02 0.02 0.03 0.03 0.04 0.04 0.03 0.02 0.02 0.02 0.02 0.02 0.02 0.02 0.01 0.01 0.02 0.02 0.02 0.02 0.02 0.02 0.02 0.01 0.01 0.01 0.01 0.01 0.01 0.00
0.03 0.03 0.02 0.02 0.01 0.02 0.02 0.02 0.02 0.02 0.03 0.04 0.04 0.03 0.03 0.03 0.02 0.02 0.03 0.03 0.02 0.02 0.02 0.02 0.02 0.03 0.03 0.03 0.03 0.03 0.03 0.02 0.02 0.02 0.02 0.02 0.01 0.01
0.03 0.03 0.02 0.02 0.02 0.02 0.02 0.02 0.02 0.02 0.03 0.03 0.02 0.02 0.02 0.02 0.02 0.02 0.02 0.02 0.02 0.02 0.02 0.02 0.02 0.03 0.04 0.04 0.04 0.03 0.03 0.02 0.02 0.02 0.02 0.02 0.02 0.03
0.03 0.03 0.03 0.03 0.02 0.02 0.02 0.02 0.02 0.02 0.02 0.02 0.02 0.02 0.02 0.02 0.01 0.01 0.02 0.02 0.01 0.01 0.01 0.01 0.01 0.02 0.02 0.02 0.03 0.03 0.02 0.02 0.02 0.01 0.01 0.02 0.02 0.04
0.03 0.04 0.04 0.03 0.02 0.02 0.03 0.03 0.03 0.02 0.02 0.02 0.03 0.03 0.03 0.02 0.01 0.01 0.01 0.01 0.01 0.01 0.01 0.01 0.01 0.01 0.01 0.01 0.01 0.01 0.01 0.01 0.01 0.01 0.01 0.01 0.02 0.03
0.02 0.02 0.02 0.02 0.02 0.02 0.02 0.02 0.02 0.02 0.02 0.03 0.03 0.03 0.02 0.02 0.01 0.01 0.01 0.01 0.01 0.01 0.01 0.00 0.00 0.00 0.00 0.00 0.01 0.01 0.01 0.01 0.01 0.01 0.01 0.01 0.02 0.02
MSLP
1019.04 1019.13 1019.27 1019.46 1019.70 1019.98 1020.29 1020.61 1020.94 1021.25 1021.54 1021.79 1021.99 1022.12 1022.19 1022.18 1022.11 1021.99 1021.86 1021.73 1021.63 1021.57 1021.56 1021.60 1021.66 1021.73 1021.77 1021.77 1021.69 1021.55 1021.34 1021.07 1020.75 1020.40 1020.03 1019.64 1019.24 1018.82
1019.48 1019.50 1019.55 1019.65 1019.81 1020.04 1020.32 1020.66 1021.04 1021.43 1021.83 1022.20 1022.51 1022.75 1022.89 1022.94 1022.90 1022.80 1022.67 1022.53 1022.43 1022.37 1022.36 1022.41 1022.48 1022.55 1022.60 1022.58 1022.50 1022.33 1022.09 1021.79 1021.44 1021.05 1020.65 1020.23 1019.80 1019.36
1020.04 1020.02 1020.03 1020.08 1020.19 1020.38 1020.65 1021.00 1021.42 1021.88 1022.36 1022.81 1023.20 1023.51 1023.70 1023.78 1023.75 1023.65 1023.50 1023.35 1023.22 1023.14 1023.12 1023.15 1023.21 1023.26 1023.29 1023.25 1023.14 1022.95 1022.68 1022.35 1021.97 1021.57 1021.15 1020.71 1020.27 1019.81
1020.71 1020.69 1020.69 1020.72 1020.82 1021.00 1021.27 1021.64 1022.08 1022.58 1023.10 1023.60 1024.04 1024.38 1024.59 1024.68 1024.65 1024.53 1024.36 1024.17 1024.01 1023.90 1023.85 1023.84 1023.87 1023.89 1023.88 1023.80 1023.66 1023.43 1023.12 1022.77 1022.37 1021.95 1021.52 1021.08 1020.63 1020.17
1021.44 1021.46 1021.49 1021.55 1021.66 1021.85 1022.13 1022.50 1022.96 1023.47 1024.00 1024.51 1024.96 1025.30 1025.51 1025.59 1025.55 1025.41 1025.22 1025.00 1024.81 1024.67 1024.57 1024.53 1024.51 1024.48 1024.41 1024.29 1024.09 1023.82 1023.48 1023.09 1022.67 1022.23 1021.80 1021.36 1020.92 1020.47
1022.19 1022.28 1022.37 1022.47 1022.62 1022.83 1023.12 1023.49 1023.94 1024.44 1024.95 1025.45 1025.88 1026.20 1026.40 1026.47 1026.42 1026.27 1026.06 1025.83 1025.62 1025.45 1025.32 1025.23 1025.16 1025.07 1024.95 1024.77 1024.51 1024.18 1023.79 1023.37 1022.92 1022.47 1022.03 1021.59 1021.16 1020.72
1022.92 1023.09 1023.24 1023.40 1023.59 1023.82 1024.12 1024.48 1024.91 1025.38 1025.86 1026.32 1026.72 1027.02 1027.20 1027.26 1027.21 1027.07 1026.87 1026.64 1026.43 1026.25 1026.10 1025.97 1025.85 1025.71 1025.53 1025.28 1024.95 1024.57 1024.13 1023.66 1023.18 1022.71 1022.26 1021.82 1021.39 1020.96
1023.59 1023.83 1024.05 1024.26 1024.49 1024.74 1025.03 1025.38 1025.78 1026.21 1026.65 1027.06 1027.43 1027.71 1027.88 1027.94 1027.90 1027.79 1027.61 1027.42 1027.23 1027.05 1026.89 1026.74 1026.59 1026.39 1026.15 1025.84 1025.46 1025.01 1024.52 1024.00 1023.49 1022.99 1022.52 1022.08 1021.65 1021.23
1024.17 1024.46 1024.73 1024.99 1025.25 1025.52 1025.81 1026.14 1026.50 1026.89 1027.29 1027.67 1028.00 1028.26 1028.43 1028.51 1028.50 1028.42 1028.29 1028.13 1027.97 1027.81 1027.66 1027.50 1027.31 1027.09 1026.80 1026.44 1026.01 1025.51 1024.98 1024.42 1023.87 1023.35 1022.86 1022.40 1021.96 1021.53
1024.64 1024.97 1025.29 1025.58 1025.86 1026.14 1026.44 1026.75 1027.09 1027.45 1027.81 1028.15 1028.46 1028.71 1028.88 1028.98 1029.00 1028.96 1028.87 1028.75 1028.62 1028.49 1028.35 1028.19 1027.99 1027.75 1027.43 1027.05 1026.58 1026.06 1025.49 1024.91 1024.34 1023.79 1023.27 1022.80 1022.34 1021.90
1025.02 1025.38 1025.72 1026.04 1026.35 1026.64 1026.95 1027.26 1027.59 1027.92 1028.26 1028.59 1028.87 1029.11 1029.29 1029.39 1029.44 1029.42 1029.36 1029.27 1029.16 1029.05 1028.92 1028.76 1028.57 1028.32 1028.01 1027.61 1027.15 1026.62 1026.05 1025.46 1024.87 1024.31 1023.77 1023.27 1022.79 1022.32
1025.31 1025.70 1026.07 1026.42 1026.75 1027.07 1027.40 1027.72 1028.05 1028.39 1028.71 1029.03 1029.30 1029.53 1029.69 1029.79 1029.83 1029.82 1029.76 1029.68 1029.58 1029.47 1029.35 1029.20 1029.02 1028.79 1028.49 1028.12 1027.67 1027.17 1026.62 1026.04 1025.46 1024.89 1024.34 1023.82 1023.31 1022.80
1025.56 1025.97 1026.37 1026.76 1027.13 1027.49 1027.84 1028.20 1028.55 1028.89 1029.21 1029.52 1029.78 1029.98 1030.12 1030.20 1030.22 1030.18 1030.11 1030.01 1029.90 1029.78 1029.65 1029.51 1029.35 1029.14 1028.88 1028.55 1028.16 1027.70 1027.19 1026.65 1026.09 1025.52 1024.96 1024.41 1023.87 1023.32
1025.77 1026.22 1026.66 1027.09 1027.51 1027.92 1028.32 1028.71 1029.09 1029.44 1029.78 1030.07 1030.31 1030.49 1030.60 1030.64 1030.61 1030.54 1030.42 1030.29 1030.15 1030.01 1029.88 1029.75 1029.60 1029.43 1029.21 1028.94 1028.61 1028.21 1027.76 1027.26 1026.72 1026.17 1025.60 1025.03 1024.46 1023.87
1025.96 1026.46 1026.95 1027.44 1027.91 1028.38 1028.82 1029.25 1029.66 1030.04 1030.38 1030.67 1030.89 1031.03 1031.10 1031.10 1031.02 1030.89 1030.73 1030.56 1030.39 1030.23 1030.09 1029.96 1029.84 1029.71 1029.54 1029.33 1029.06 1028.72 1028.32 1027.86 1027.36 1026.82 1026.24 1025.65 1025.04 1024.41
1026.14 1026.69 1027.24 1027.78 1028.31 1028.83 1029.32 1029.79 1030.23 1030.63 1030.97 1031.25 1031.45 1031.57 1031.60 1031.55 1031.44 1031.27 1031.07 1030.86 1030.67 1030.50 1030.35 1030.24 1030.14 1030.03 1029.91 1029.75 1029.53 1029.24 1028.88 1028.45 1027.97 1027.43 1026.84 1026.23 1025.59 1024.92
1026.29 1026.90 1027.50 1028.10 1028.67 1029.23 1029.76 1030.26 1030.72 1031.13 1031.48 1031.76 1031.95 1032.05 1032.06 1031.99 1031.85 1031.67 1031.45 1031.23 1031.03 1030.86 1030.72 1030.62 1030.53 1030.45 1030.36 1030.22 1030.03 1029.76 1029.43 1029.01 1028.53 1027.98 1027.38 1026.75 1026.08 1025.39
1026.40 1027.06 1027.70 1028.34 1028.95 1029.53 1030.09 1030.60 1031.08 1031.50 1031.85 1032.13 1032.32 1032.42 1032.44 1032.37 1032.24 1032.07 1031.87 1031.67 1031.49 1031.33 1031.21 1031.12 1031.05 1030.98 1030.89 1030.75 1030.56 1030.29 1029.95 1029.52 1029.02 1028.46 1027.84 1027.18 1026.50 1025.79
1026.44 1027.13 1027.81 1028.46 1029.09 1029.69 1030.26 1030.78 1031.26 1031.69 1032.05 1032.34 1032.54 1032.67 1032.71 1032.68 1032.59 1032.46 1032.31 1032.15 1032.01 1031.89 1031.80 1031.72 1031.66 1031.58 1031.47 1031.31 1031.10 1030.80 1030.42 1029.97 1029.45 1028.86 1028.23 1027.56 1026.86 1026.16
1026.39 1027.10 1027.79 1028.46 1029.09 1029.69 1030.26 1030.79 1031.27 1031.70 1032.07 1032.38 1032.61 1032.78 1032.87 1032.90 1032.88 1032.82 1032.74 1032.65 1032.57 1032.49 1032.43 1032.37 1032.30 1032.20 1032.07 1031.87 1031.61 1031.28 1030.86 1030.37 1029.82 1029.22 1028.57 1027.90 1027.21 1026.52
1026.23 1026.95 1027.65 1028.31 1028.95 1029.54 1030.11 1030.63 1031.12 1031.56 1031.95 1032.29 1032.56 1032.78 1032.94 1033.04 1033.10 1033.12 1033.12 1033.11 1033.09 1033.06 1033.03 1032.99 1032.91 1032.80 1032.63 1032.40 1032.09 1031.71 1031.27 1030.75 1030.18 1029.57 1028.93 1028.27 1027.60 1026.93
1025.98 1026.70 1027.39 1028.05 1028.68 1029.27 1029.84 1030.37 1030.87 1031.33 1031.75 1032.12 1032.44 1032.71 1032.93 1033.11 1033.25 1033.36 1033.44 1033.50 1033.54 1033.56 1033.56 1033.52 1033.45 1033.32 1033.13 1032.87 1032.54 1032.13 1031.66 1031.14 1030.57 1029.97 1029.35 1028.72 1028.08 1027.45
1025.62 1026.34 1027.03 1027.69 1028.33 1028.93 1029.51 1030.06 1030.57 1031.06 1031.51 1031.92 1032.29 1032.61 1032.90 1033.14 1033.35 1033.52 1033.67 1033.79 1033.88 1033.95 1033.97 1033.95 1033.88 1033.75 1033.56 1033.29 1032.95 1032.55 1032.09 1031.59 1031.04 1030.48 1029.90 1029.31 1028.72 1028.13
Thickness
5679 5678 5676 5675 5674 5672 5669 5665 5658 5650 5648 5651 5653 5654 5654 5653 5652 5651 5650 5648 5647 5647 5646 5645 5644 5642 5642 5641 5640 5638 5637 5637 5636 5635 5635 5634 5633 5632
5677 5675 5674 5672 5671 5670 5668 5665 5662 5656 5648 5648 5649 5650 5650 5649 5647 5646 5645 5643 5642 5641 5640 5639 5637 5635 5634 5633 5631 5630 5629 5628 5627 5626 5625 5624 5623 5622
5673 5672 5670 5669 5667 5666 5664 5662 5659 5656 5649 5646 5646 5646 5645 5644 5642 5641 5640 5638 5637 5635 5634 5632 5630 5628 5627 5625 5623 5621 5620 5618 5617 5616 5615 5614 5613 5612
5669 5668 5666 5666 5663 5662 5661 5659 5656 5653 5649 5643 5641 5641 5640 5639 5637 5636 5634 5633 5631 5630 5628 5626 5624 5621 5619 5617 5614 5612 5610 5608 5607 5606 5605 5604 5603 5602
5667 5665 5663 5662 5660 5658 5657 5655 5652 5650 5646 5642 5637 5636 5635 5633 5631 5630 5628 5627 5626 5623 5621 5619 5617 5614 5612 5609 5606 5604 5601 5599 5598 5596 5595 5593 5592 5591
5663 5662 5661 5660 5658 5656 5653 5651 5648 5645 5641 5637 5633 5630 5628 5627 5625 5622 5620 5619 5618 5617 5614 5612 5610 5607 5604 5602 5599 5596 5593 5591 5589 5587 5585 5584 5582 5580
5659 5658 5658 5657 5656 5654 5651 5647 5644 5639 5635 5631 5627 5625 5622 5620 5618 5616 5614 5612 5611 5609 5607 5604 5602 5599 5596 5593 5590 5587 5585 5583 5581 5579 5577 5574 5572 5570
5655 5654 5653 5652 5651 5650 5648 5646 5642 5637 5631 5627 5623 5620 5618 5617 5615 5613 5609 5605 5602 5602 5599 5596 5594 5591 5588 5586 5583 5580 5577 5575 5573 5571 5568 5566 5563 5561
5651 5650 5649 5648 5646 5644 5643 5641 5639 5636 5633 5628 5622 5620 5617 5616 5612 5608 5604 5601 5598 5596 5592 5588 5586 5583 5581 5578 5575 5572 5570 5567 5565 5562 5559 5556 5554 5551
5648 5646 5644 5643 5641 5639 5637 5634 5632 5630 5628 5626 5623 5620 5617 5614 5611 5607 5603 5597 5593 5590 5587 5580 5578 5576 5574 5571 5568 5564 5561 5559 5556 5553 5550 5547 5544 5541
5643 5642 5641 5639 5638 5635 5632 5629 5626 5625 5624 5621 5619 5616 5613 5610 5607 5602 5596 5591 5586 5583 5580 5575 5571 5568 5566 5563 5560 5556 5553 5550 5547 5545 5541 5538 5534 5531
5638 5637 5636 5635 5633 5631 5627 5624 5621 5619 5617 5615 5612 5609 5607 5604 5601 5597 5593 5587 5581 5577 5575 5570 5565 5561 5557 5554 5551 5548 5545 5542 5539 5536 5532 5529 5525 5521
5632 5631 5631 5630 5628 5626 5624 5621 5619 5616 5612 5608 5605 5602 5599 5597 5594 5591 5588 5584 5578 5574 5571 5566 5559 5553 5549 5545 5542 5540 5536 5533 5531 5527 5523 5520 5516 5512
5628 5627 5626 5625 5623 5621 5619 5617 5614 5610 5606 5601 5598 5595 5592 5590 5588 5585 5582 5579 5575 5571 5566 5562 5555 5549 5542 5537 5533 5531 5528 5525 5522 5518 5515 5511 5508 5504
5624 5622 5620 5618 5617 5615 5613 5610 5607 5603 5599 5595 5592 5590 5588 5585 5582 5578 5575 5571 5568 5564 5559 5555 5551 5545 5538 5532 5528 5523 5519 5516 5513 5510 5506 5503 5499 5495
5617 5615 5613 5610 5608 5606 5604 5602 5599 5597 5593 5590 5587 5584 5581 5578 5574 5571 5567 5563 5558 5555 5551 5548 5544 5539 5532 5528 5522 5517 5512 5508 5506 5502 5498 5495 5491 5487
5610 5607 5603 5601 5598 5597 5595 5593 5591 5588 5585 5583 5580 5577 5574 5570 5567 5563 5559 5555 5551 5547 5543 5539 5535 5531 5527 5521 5516 5511 5506 5502 5499 5495 5490 5487 5484 5480
5603 5599 5597 5594 5592 5590 5588 5585 5583 5581 5579 5576 5573 5570 5567 5564 5560 5556 5552 5548 5543 5540 5536 5531 5527 5522 5517 5513 5510 5505 5500 5496 5492 5488 5484 5479 5477 5475
5595 5593 5591 5589 5587 5584 5582 5580 5578 5576 5573 5569 5566 5563 5560 5557 5553 5549 5545 5540 5536 5532 5528 5524 5519 5514 5510 5506 5502 5498 5494 5489 5485 5481 5477 5473 5470 5468
5588 5587 5585 5583 5581 5578 5576 5574 5571 5568 5565 5563 5560 5557 5554 5550 5546 5542 5538 5534 5530 5525 5521 5516 5512 5509 5505 5501 5496 5491 5487 5482 5478 5474 5470 5466 5463 5461
5582 5581 5579 5577 5574 5572 5570 5567 5564 5562 5559 5556 5553 5550 5547 5543 5539 5535 5531 5527 5523 5518 5514 5511 5507 5503 5498 5493 5487 5483 5479 5475 5471 5467 5463 5458 5455 5451
5577 5575 5572 5570 5567 5565 5562 5560 5557 5555 5552 5550 5547 5543 5540 5536 5533 5529 5525 5520 5516 5513 5509 5504 5500 5495 5490 5485 5480 5476 5471 5467 5464 5460 5456 5452 5447 5443
5571 5568 5565 5563 5560 5558 5555 5553 5550 5548 5545 5542 5540 5537 5533 5529 5526 5522 5518 5514 5510 5505 5501 5495 5490 5486 5481 5477 5472 5467 5463 5459 5455 5451 5448 5445 5442 5438